Location: F M Corners
(41.2198°N, 80.4709°W)
Time: 23:01:15
(UTC+00:00)

Okean-O - Pass Details

Date: 29 October 2020
Orbit: 638 x 641 km, 98.2° (Epoch: 29 November)

Event Time Altitude Azimuth Distance (km) Brightness Sun altitude
Rises 22:51:31 0° 130° (SE) 2,936 5.7 -6.5°
Reaches altitude 10° 22:54:09 10° 114° (ESE) 2,031 4.7 -7.0°
Maximum altitude 22:57:26 21° 66° (ENE) 1,454 3.9 -7.6°
Drops below altitude 10° 23:00:43 10° 18° (NNE) 2,041 4.9 -8.2°
Sets 23:03:22 0° 2° (N) 2,955 5.9 -8.7°
